Location: Béaulencourt
(50.0796°N, 2.8795°E)
Time: 23:27:23
(UTC+00:00)

Cosmos 1656 Rocket - Pass Details

Date: 20 January 2026
Orbit: 794 x 844 km, 71.1° (Epoch: 7 February)

Event Time Altitude Azimuth Distance (km) Brightness Sun altitude
Rises 06:58:02 0° 234° (SW) 3,394 6.5 -6.4°
Reaches altitude 10° 07:00:39 10° 242° (WSW) 2,461 5.8 -6.0°
Maximum altitude 07:05:54 38° 310° (NW) 1,256 4.2 -5.2°
Drops below altitude 10° 07:11:09 10° 19° (NNE) 2,455 6.1 -4.5°
Sets 07:13:46 0° 27° (NNE) 3,385 6.8 -4.1°
